Stations météo

réclame
Mon MeteoGroup
Westdorpe aws, Pays-Bas (6319): Température de l'air & dewpoint: 12.08.2018 02:00:00 - 18.08.2018 02:00:00 (CEST)Westdorpe aws, Pays-Bas (6319): Température de l'air 5cm: 12.08.2018 02:00:00 - 18.08.2018 02:00:00 (CEST)Westdorpe aws, Pays-Bas (6319): Vitesse du vent & gusts: 12.08.2018 02:00:00 - 18.08.2018 02:00:00 (CEST)Westdorpe aws, Pays-Bas (6319): Direction du vent: 12.08.2018 02:00:00 - 18.08.2018 02:00:00 (CEST)Westdorpe aws, Pays-Bas (6319): reduced air pressure: 12.08.2018 02:00:00 - 18.08.2018 02:00:00 (CEST)Westdorpe aws, Pays-Bas (6319): visibility: 12.08.2018 02:00:00 - 18.08.2018 02:00:00 (CEST)Westdorpe aws, Pays-Bas (6319): Quantités de précipitations: 12.08.2018 02:00:00 - 18.08.2018 02:00:00 (CEST)
Date & Time tt [°C] td [°C] tt 5cm [°C] ff [km/h] ff [knt] fx [km/h] fx [knt] dd ppp [hPa] vv [km] rr [mm]
18.08.2018 02:00:00 15,0 11,8 13,6 11 6 18 10 SW 1021,8 36 0,0
18.08.2018 01:00:00 14,7 11,6 12,9 11 6 18 10 SW 1021,9 38 0,0
18.08.2018 00:00:00 13,7 12,2 12,0 7 4 11 6 SW 1021,9 37 0,0
17.08.2018 23:00:00 14,5 12,9 11,7 4 2 4 2 SSW 1021,7 30 0,0
17.08.2018 22:00:00 15,3 12,7 12,6 0 0 7 4 N 1021,5 34 0,0
17.08.2018 21:00:00 16,9 12,5 15,4 7 4 14 8 NNW 1021,1 49 0,0
17.08.2018 20:00:00 19,9 10,4 19,8 14 8 25 14 NNW 1020,6 49 0,0
17.08.2018 19:00:00 20,7 10,8 21,4 18 10 29 16 NW 1020,2 49 0,0
17.08.2018 18:00:00 21,5 10,9 23,2 18 10 29 16 WNW 1020,0 44 0,0
17.08.2018 17:00:00 21,6 11,7 22,9 18 10 29 16 WNW 1020,0 44 0,0
17.08.2018 16:00:00 22,1 11,8 24,6 18 10 29 16 WNW 1020,2 38 0,0
17.08.2018 15:00:00 21,7 11,7 24,4 18 10 25 14 NW 1020,2 43 0,0
17.08.2018 14:00:00 21,7 13,0 23,8 18 10 32 18 NW 1020,1 44 0,0
17.08.2018 13:00:00 21,3 13,6 21,9 18 10 25 14 NW 1019,7 40 0,0
17.08.2018 12:00:00 20,9 12,6 23,3 11 6 22 12 WNW 1019,5 45 0,0
17.08.2018 11:00:00 20,5 13,4 21,7 11 6 14 8 NW 1019,2 40 0,0
17.08.2018 10:00:00 19,2 15,7 20,6 7 4 11 6 WNW 1018,7 26 0,0
17.08.2018 09:00:00 16,1 15,6 16,0 7 4 11 6 W 1018,2 11 0,0
17.08.2018 08:00:00 14,8 14,7 14,4 0 0 4 2 N 1017,7 6 0,0
17.08.2018 07:00:00 14,2 14,0 12,6 4 2 7 4 SSW 1017,3 4,7 0,0
17.08.2018 06:00:00 14,4 14,0 13,2 4 2 11 6 SW 1016,9 8 0,0
17.08.2018 05:00:00 15,2 14,6 14,7 4 2 11 6 SSW 1016,3 16 0,0
17.08.2018 04:00:00 15,4 14,9 15,1 4 2 14 8 SSE 1016,3 23 0,2
17.08.2018 03:00:00 15,7 14,8 15,3 7 4 18 10 WNW 1016,2 28 1,4
17.08.2018 02:00:00 16,2 15,5 16,0 11 6 18 10 W 1016,2 7 1,1
17.08.2018 01:00:00 16,5 15,9 16,2 11 6 25 14 W 1016,4 10 3,2
17.08.2018 00:00:00 17,0 16,3 16,8 14 8 25 14 NW 1016,1 10 0,7
16.08.2018 23:00:00 18,0 16,4 17,7 18 10 36 19 NW 1015,7 20 0,0
16.08.2018 22:00:00 19,5 16,8 19,1 14 8 22 12 NNW 1015,2 47 0,0
16.08.2018 21:00:00 19,9 16,6 19,5 7 4 18 10 NW 1015,0 46 0,0
16.08.2018 20:00:00 20,7 16,6 20,5 14 8 22 12 NW 1014,7 41 0,0
16.08.2018 19:00:00 22,9 16,1 23,5 18 10 29 16 NW 1014,4 40 0,0
16.08.2018 18:00:00 23,4 16,7 24,2 18 10 29 16 N 1014,7 35 0,0
16.08.2018 17:00:00 25,7 15,0 26,4 14 8 32 18 W 1014,5 41 0,0
16.08.2018 16:00:00 25,8 14,3 27,3 14 8 32 18 SW 1014,5 37 0,0
16.08.2018 15:00:00 25,1 14,0 26,7 18 10 32 18 SSW 1014,8 38 0,0
16.08.2018 14:00:00 23,2 14,1 26,4 14 8 - - SSW 1015,2 40 -
16.08.2018 13:00:00 21,6 15,1 23,2 18 10 29 16 WSW 1015,5 38 0,0
16.08.2018 12:00:00 20,7 15,3 21,5 14 8 29 16 WSW 1015,8 47 0,0
16.08.2018 11:00:00 20,1 15,0 20,9 18 10 29 16 SW 1016,2 43 0,0
16.08.2018 10:00:00 19,8 14,6 20,5 18 10 29 16 WSW 1016,1 48 0,0
16.08.2018 09:00:00 19,7 15,1 19,9 22 12 29 16 SW 1016,0 47 0,0
16.08.2018 08:00:00 17,6 15,0 17,2 7 4 22 12 S 1016,3 21 0,0
16.08.2018 07:00:00 16,5 14,4 15,6 11 6 29 16 SSW 1016,5 39 0,0
16.08.2018 06:00:00 15,3 13,9 13,5 7 4 14 8 SSW 1016,6 15 0,0
16.08.2018 05:00:00 14,8 13,5 13,4 7 4 11 6 S 1016,8 23 0,0
16.08.2018 04:00:00 15,7 13,7 14,5 7 4 22 12 S 1017,1 32 0,0
16.08.2018 03:00:00 16,8 13,8 15,5 14 8 22 12 SW 1017,3 47 0,0
16.08.2018 02:00:00 16,8 13,7 15,6 14 8 22 12 SW 1017,7 48 0,0
16.08.2018 01:00:00 17,2 13,6 16,2 14 8 22 12 SW 1018,0 50 0,0
16.08.2018 00:00:00 17,8 13,8 16,7 14 8 29 16 SW 1018,2 48 0,0
15.08.2018 23:00:00 18,8 14,3 17,7 14 8 25 14 SW 1018,4 43 0,0
15.08.2018 22:00:00 19,0 14,5 17,5 11 6 14 8 S 1018,4 44 0,0
15.08.2018 21:00:00 20,3 14,4 19,7 11 6 22 12 SSW 1018,2 48 0,0
15.08.2018 20:00:00 21,4 14,2 21,4 18 10 29 16 SSW 1018,2 49 0,0
15.08.2018 19:00:00 21,7 14,4 22,2 18 10 29 16 SW 1018,6 44 0,0
15.08.2018 18:00:00 21,7 14,7 22,7 18 10 25 14 SSW 1019,0 44 0,0
15.08.2018 17:00:00 21,3 14,9 22,7 18 10 32 18 SW 1019,2 41 0,0
15.08.2018 16:00:00 21,2 15,2 23,1 22 12 29 16 WSW 1019,4 39 0,0
15.08.2018 15:00:00 20,9 15,5 22,1 18 10 25 14 WSW 1019,6 37 0,0
15.08.2018 14:00:00 20,0 15,4 21,1 18 10 25 14 SW 1019,7 35 0,0
15.08.2018 13:00:00 19,8 14,8 21,3 14 8 32 18 WSW 1019,6 21 0,0
15.08.2018 12:00:00 20,6 14,7 21,8 18 10 29 16 WSW 1019,6 33 0,0
15.08.2018 11:00:00 18,9 14,4 19,0 18 10 32 18 WSW 1019,7 44 0,0
15.08.2018 10:00:00 19,4 16,1 19,9 14 8 25 14 WSW 1019,2 21 0,0
15.08.2018 09:00:00 19,1 16,8 18,9 11 6 22 12 SW 1018,9 12 0,0
15.08.2018 08:00:00 18,3 16,6 18,3 14 8 22 12 SW 1018,5 12 0,0
15.08.2018 07:00:00 17,8 16,4 17,6 14 8 22 12 SW 1018,2 12 0,0
15.08.2018 06:00:00 17,9 16,2 17,6 14 8 22 12 SW 1018,0 17 0,0
15.08.2018 05:00:00 17,8 15,8 17,5 14 8 25 14 SW 1018,0 27 0,0
15.08.2018 04:00:00 17,8 15,5 17,5 14 8 29 16 SW 1018,1 36 0,0
15.08.2018 03:00:00 17,9 15,2 17,6 18 10 25 14 SW 1018,3 44 0,0
15.08.2018 02:00:00 18,1 14,7 17,7 14 8 29 16 SW 1018,6 49 0,0
15.08.2018 01:00:00 18,0 14,4 17,4 14 8 25 14 SW 1018,6 44 0,0
15.08.2018 00:00:00 18,1 14,4 17,3 14 8 22 12 SW 1018,6 47 0,0
14.08.2018 23:00:00 17,6 14,3 16,6 11 6 18 10 WSW 1018,5 46 0,0
14.08.2018 22:00:00 18,4 14,1 17,5 11 6 18 10 WSW 1018,2 49 0,0
14.08.2018 21:00:00 19,3 14,0 19,1 11 6 14 8 W 1018,1 49 0,0
14.08.2018 20:00:00 19,9 13,4 19,8 11 6 25 14 W 1017,8 50 0,0
14.08.2018 19:00:00 20,4 13,4 20,7 22 12 29 16 WNW 1017,7 45 0,0
14.08.2018 18:00:00 20,7 12,7 21,6 22 12 32 18 W 1017,6 43 0,0
14.08.2018 17:00:00 22,1 13,3 23,6 25 14 40 21 W 1017,3 45 0,0
14.08.2018 16:00:00 22,0 13,1 23,0 25 14 40 21 WNW 1017,4 40 0,0
14.08.2018 15:00:00 21,8 16,0 24,0 18 10 36 19 W 1016,7 37 0,0
14.08.2018 14:00:00 21,2 16,5 22,3 22 12 32 18 W 1016,2 32 0,0
14.08.2018 13:00:00 21,4 17,6 22,5 22 12 32 18 W 1015,8 27 0,0
14.08.2018 12:00:00 19,3 17,3 19,4 18 10 29 16 W 1015,6 19 0,2
14.08.2018 11:00:00 18,2 17,3 18,0 11 6 18 10 W 1015,2 10 1,4
14.08.2018 10:00:00 18,1 17,3 18,1 14 8 22 12 WSW 1014,7 4,0 0,8
14.08.2018 09:00:00 18,9 17,2 19,0 11 6 14 8 W 1013,9 10 0,0
14.08.2018 08:00:00 17,7 16,8 17,2 11 6 18 10 W 1013,3 10 0,0
14.08.2018 07:00:00 16,7 16,3 16,2 11 6 14 8 W 1012,5 7 0,0
14.08.2018 06:00:00 16,3 16,0 15,7 11 6 14 8 WSW 1011,9 6 0,0
14.08.2018 05:00:00 16,6 16,2 16,1 11 6 18 10 WSW 1011,4 6 0,0
14.08.2018 04:00:00 17,0 16,3 16,4 14 8 22 12 WSW 1010,9 8 0,0
14.08.2018 03:00:00 16,6 15,8 16,0 14 8 22 12 WSW 1010,6 11 0,0
14.08.2018 02:00:00 16,6 15,7 16,1 14 8 25 14 WSW 1010,5 12 0,0
14.08.2018 01:00:00 16,8 15,7 16,2 14 8 25 14 WSW 1010,2 14 0,0
14.08.2018 00:00:00 17,5 15,9 16,9 18 10 29 16 WSW 1009,6 18 0,0
13.08.2018 23:00:00 18,2 15,9 17,7 22 12 29 16 WSW 1009,1 24 0,0
13.08.2018 22:00:00 18,8 15,9 18,2 14 8 18 10 WSW 1008,9 39 0,0
13.08.2018 21:00:00 19,3 15,4 18,9 14 8 29 16 W 1008,4 43 0,0
13.08.2018 20:00:00 20,6 14,9 20,8 25 14 40 21 WNW 1007,9 40 0,0
13.08.2018 19:00:00 21,3 14,8 21,9 18 10 29 16 W 1007,4 39 0,0
13.08.2018 18:00:00 22,1 16,1 22,8 14 8 22 12 W 1006,9 35 0,0
13.08.2018 17:00:00 20,7 16,5 20,7 14 8 25 14 W 1007,0 44 0,0
13.08.2018 16:00:00 19,6 16,1 20,6 22 12 36 19 WSW 1006,9 34 0,0
13.08.2018 15:00:00 22,0 15,7 23,1 22 12 40 21 WSW 1006,7 46 0,0
13.08.2018 14:00:00 22,3 15,5 23,5 29 16 40 21 SW 1006,4 41 0,0
13.08.2018 13:00:00 21,1 15,1 22,2 25 14 36 19 WSW 1006,4 40 0,0
13.08.2018 12:00:00 20,3 16,3 21,5 18 10 25 14 SW 1006,1 39 0,0
13.08.2018 11:00:00 19,5 17,0 19,8 14 8 29 16 SW 1006,3 41 0,0
13.08.2018 10:00:00 18,7 16,3 18,7 18 10 29 16 SW 1006,0 40 0,0
13.08.2018 09:00:00 17,8 16,8 17,8 7 4 25 14 S 1005,7 6 0,0
13.08.2018 08:00:00 17,6 16,6 17,4 18 10 25 14 SW 1006,2 16 0,6
13.08.2018 07:00:00 17,3 16,4 17,0 11 6 22 12 S 1005,9 9 0,7
13.08.2018 06:00:00 17,6 15,7 16,9 7 4 14 8 S 1005,9 22 0,0
13.08.2018 05:00:00 17,8 16,0 17,1 7 4 11 6 SSE 1006,1 19 0,0
13.08.2018 04:00:00 17,4 16,1 16,5 7 4 11 6 SSE 1006,4 22 0,0
13.08.2018 03:00:00 17,8 16,6 16,9 0 0 7 4 N 1007,0 23 0,0
13.08.2018 02:00:00 18,5 16,5 18,0 7 4 18 10 W 1007,9 34 0,2
13.08.2018 01:00:00 19,8 16,5 19,2 11 6 14 8 WNW 1008,2 30 0,0
13.08.2018 00:00:00 21,2 15,0 20,0 4 2 18 10 WSW 1008,0 50 0,0
12.08.2018 23:00:00 22,4 14,2 21,2 7 4 18 10 SSE 1008,4 50 0,0
12.08.2018 22:00:00 22,9 13,7 21,6 7 4 11 6 SE 1008,6 50 0,0
12.08.2018 21:00:00 23,5 13,5 22,3 7 4 11 6 ESE 1009,0 50 0,0
12.08.2018 20:00:00 25,2 12,0 24,6 7 4 18 10 S 1009,2 49 0,0
12.08.2018 19:00:00 26,1 11,6 26,4 11 6 22 12 S 1009,8 49 0,0
12.08.2018 18:00:00 26,6 11,7 27,5 14 8 25 14 S 1010,4 50 0,0
12.08.2018 17:00:00 26,7 11,1 27,8 14 8 32 18 SSW 1011,1 48 0,0
12.08.2018 16:00:00 27,4 10,6 29,5 14 8 32 18 S 1011,8 45 0,0
12.08.2018 15:00:00 26,6 10,9 30,0 22 12 36 19 S 1012,6 39 0,0
12.08.2018 14:00:00 25,8 10,6 28,4 22 12 32 18 S 1013,4 43 0,0
12.08.2018 13:00:00 25,6 10,6 29,1 25 14 36 19 S 1014,1 48 0,0
12.08.2018 12:00:00 24,2 10,1 26,4 22 12 40 21 SSW 1014,7 49 0,0
12.08.2018 11:00:00 22,8 10,1 25,0 22 12 32 18 S 1015,2 48 0,0
12.08.2018 10:00:00 20,2 10,3 21,0 14 8 25 14 S 1015,5 41 0,0
12.08.2018 09:00:00 18,3 10,0 18,2 14 8 22 12 S 1016,1 49 0,0
12.08.2018 08:00:00 17,3 10,1 17,2 11 6 14 8 S 1016,2 50 0,0
12.08.2018 07:00:00 16,0 10,4 15,1 7 4 11 6 S 1016,6 50 0,0
12.08.2018 06:00:00 16,1 10,3 15,4 7 4 14 8 SSE 1016,7 50 0,0
12.08.2018 05:00:00 15,9 11,1 15,4 4 2 11 6 SE 1017,6 49 0,0
12.08.2018 04:00:00 15,7 11,3 15,2 7 4 11 6 SSE 1018,3 49 0,0
12.08.2018 03:00:00 15,7 11,2 15,1 7 4 11 6 SSE 1019,0 47 0,0
12.08.2018 02:00:00 14,9 11,4 13,9 7 4 14 8 SSE 1019,6 43 0,0

tt = Température de l'air
td = dewpoint
tt 5cm = Température de l'air 5cm
ff = Vitesse du vent
fx = gusts
dd = Direction du vent
ppp = reduced air pressure
vv = visibility
rr = Quantités de précipitations

stations d'obs. à proximité